This demonstration page uses our WeatherBlox Daily Observations layout. Learn more.

Left ArrowRight Arrow

34.02893, -84.19858

Hourly Observations for December 10, 2022

Temp ( °F °C ) Dew Point ( °F °C ) Humidity (%) Winds ( mph kmh ) Pressure ( in mb ) Visibility ( mi km ) Precip ( " mm )
12:53 am 00:53 Cloudy with Mist and Fog 54 12.2 54 12.2 100 100 VRB 3 6 30.15 1021 3 4 0.00 0.00
1:10 am 01:10 Cloudy with Mist and Fog 54 12.2 53 11.7 97 97 Calm 30.16 1021 3 5 0.00 0.00
1:53 am 01:53 Cloudy with Mist and Fog 53 11.7 52 11.1 96 96 VRB 5 7 30.16 1021 6 10 0.00 0.00
2:07 am 02:07 Cloudy 53 11.7 51 10.6 93 93 VRB 3 6 30.16 1021 10 16 0.00 0.00
2:53 am 02:53 Cloudy 52 11.1 51 10.6 97 97 VRB 5 7 30.16 1022 10 16 0.00 0.00
3:53 am 03:53 Cloudy 52 11.1 51 10.6 97 97 VRB 3 6 30.16 1022 10 16 0.00 0.00
4:18 am 04:18 Cloudy 52 11.1 51 10.6 97 97 E 3 6 30.18 1022 7 11 0.00 0.00
4:53 am 04:53 Cloudy with Mist and Fog 51 10.6 50 10 96 96 E 5 7 30.16 1021 4 6 0.00 0.00
5:11 am 05:11 Cloudy 51 10.6 50 10 96 96 Calm 30.18 1022 10 16 0.00 0.00
5:53 am 05:53 Cloudy 51 10.6 50 10 96 96 E 3 6 30.18 1022 10 16 0.00 0.00
6:09 am 06:09 Cloudy 51 10.6 49 9.4 92 92 VRB 3 6 30.19 1022 10 16 0.00 0.00
6:36 am 06:36 Cloudy 51 10.6 49 9.4 92 92 VRB 3 6 30.20 1023 10 16 0.00 0.00
6:53 am 06:53 Cloudy 51 10.6 49 9.4 92 92 Calm 30.20 1023 10 16 0.00 0.00
7:53 am 07:53 Cloudy 51 10.6 49 9.4 92 92 Calm 30.20 1023 10 16 0.00 0.00
8:53 am 08:53 Cloudy 51 10.6 49 9.4 92 92 Calm 30.21 1023 8 13 0.00 0.00
9:53 am 09:53 Cloudy 52 11.1 49 9.4 89 89 E 3 6 30.23 1024 10 16 0.00 0.00
10:53 am 10:53 Cloudy 52 11.1 49 9.4 89 89 ESE 5 7 30.23 1024 10 16 0.00 0.00
11:53 am 11:53 Cloudy 54 12.2 50 10 86 86 ENE 3 6 30.23 1024 10 16 0.00 0.00
12:53 pm 12:53 Cloudy 54 12.2 51 10.6 90 90 Calm 30.20 1023 10 16 0.00 0.00
1:24 pm 13:24 Cloudy 55 12.8 51 10.6 86 86 E 3 6 30.19 1022 10 16 0.00 0.00
1:53 pm 13:53 Cloudy 55 12.8 51 10.6 86 86 VRB 3 6 30.18 1022 10 16 0.00 0.00
2:53 pm 14:53 Cloudy 56 13.3 51 10.6 84 84 Calm 30.16 1021 10 16 0.00 0.00
3:16 pm 15:16 Cloudy 56 13.3 50 10 80 80 Calm 30.16 1021 10 16 0.00 0.00
3:30 pm 15:30 Cloudy 55 12.8 50 10 83 83 VRB 3 6 30.16 1021 10 16 0.00 0.00
3:53 pm 15:53 Cloudy 55 12.8 50 10 83 83 Calm 30.17 1022 10 16 0.00 0.00
4:21 pm 16:21 Cloudy 55 12.8 50 10 83 83 Calm 30.18 1022 10 16 0.00 0.00
4:53 pm 16:53 Cloudy 55 12.8 50 10 83 83 SE 5 7 30.18 1022 10 16 0.00 0.00
5:27 pm 17:27 Cloudy 54 12.2 50 10 86 86 SE 5 7 30.19 1022 10 16 0.00 0.00
5:53 pm 17:53 Cloudy 54 12.2 50 10 86 86 SSE 5 7 30.20 1023 10 16 0.00 0.00
6:49 pm 18:49 Cloudy 54 12 50 10 88 88 VRB 7 11 30.18 1022 10 16 0.00 0.00
6:53 pm 18:53 Cloudy 53 11.7 50 10 89 89 ESE 5 7 30.18 1022 10 16 0.00 0.00
7:53 pm 19:53 Cloudy with Mist and Fog 52 11.1 50 10 93 93 VRB 3 6 30.20 1023 5 8 0.00 0.00
8:46 pm 20:46 Cloudy with Mist and Fog 52 11.1 50 10 93 93 NNE 5 7 30.24 1024 3 4 0.00 0.00
8:58 pm 20:58 Cloudy with Mist and Fog 52 11.1 51 10.6 97 97 Calm 30.23 1024 3 4 0.00 0.00
9:17 pm 21:17 Cloudy with Mist and Fog 51 10.6 51 10.6 100 100 SE 5 7 30.22 1023 4 6 0.00 0.00
9:53 pm 21:53 Cloudy 51 10.6 51 10.6 100 100 SE 6 9 30.19 1023 7 11 0.00 0.00
10:00 pm 22:00 Cloudy 51 10.6 51 10.6 100 100 SE 5 7 30.20 1023 8 13 0.00 0.00
10:16 pm 22:16 Cloudy 52 11.1 50 10 93 93 VRB 6 9 30.20 1023 9 14 0.00 0.00
10:53 pm 22:53 Cloudy 51 10.6 50 10 96 96 SE 6 9 30.18 1022 8 13 0.00 0.00
11:14 pm 23:14 Cloudy 51 10.6 50 10 96 96 ESE 7 11 30.19 1022 8 13 0.00 0.00
11:53 pm 23:53 Cloudy with Mist and Fog 51 10.6 50 10 96 96 VRB 5 7 30.19 1022 5 8 0.00 0.00

Powered by AerisWeather